Regional Weather Roundup
Issued by NWS

Home | Current Version | Previous Version | Text Only | Print | Product List | Glossary On
Versions: 1 2 3 4 5 6 7 8 9 10 11 12 13 14 15 16 17 18 19 20 21 22 23 24 25 26 27 28 29 30 31 32 33 34 35 36 37 38 39 40 41 42 43 44 45 46 47 48 49 50
000
ASUS43 KOAX 202210
RWRNE

WEATHER ROUNDUP FOR NEBRASKA
NATIONAL WEATHER SERVICE OMAHA NE
400 PM CST MON FEB 20 2017

NOTES: SATELLITE DATA IS BEING USED TO AUGMENT CLOUD COVER ABOVE
       12000 FEET.
       "FAIR" INDICATES FEW OR NO CLOUDS BELOW 12,000 FEET WITH NO
       SIGNIFICANT WEATHER AND/OR OBSTRUCTIONS TO VISIBILITY.

  * THESE STATIONS DO NOT REPORT WEATHER SUCH AS RAIN...SNOW OR FOG.

NEZ001>004-019>022-054>056-202300-
NEBRASKA PANHANDLE

CITY           SKY/WX    TMP DP  RH WIND       PRES   REMARKS
SCOTTSBLUFF    SUNNY     63  21  20 W21G33    29.92R
ALLIANCE       SUNNY     61  15  16 W14G29    29.90S
CHADRON        SUNNY     63  15  15 W16       29.86F
KIMBALL        PTSUNNY   62  25  24 NW10G17   29.95F
SIDNEY         SUNNY     62  19  19 NW18G30   29.95S
$$

NEZ057>060-069>072-079>082-202300-
SOUTHWEST NEBRASKA

CITY           SKY/WX    TMP DP  RH WIND       PRES   REMARKS
NORTH PLATTE   SUNNY     64  27  24 NW17G25   29.89R
IMPERIAL       SUNNY     62  18  18 NW21G28   29.94R
LEXINGTON      SUNNY     62  31  31 N16       29.88R
MCCOOK         SUNNY     64  28  25 N20       29.90R
OGALLALA       SUNNY     64  17  16 NW14G25   29.93R
$$

NEZ005>010-023>029-035>040-094-202300-
NORTH CENTRAL NEBRASKA

CITY           SKY/WX    TMP DP  RH WIND       PRES   REMARKS
VALENTINE      SUNNY     61  24  24 NW14G21   29.84R
AINSWORTH      SUNNY     60  31  34 NW14G22   29.85R
BROKEN BOW     SUNNY     62  33  33 N18G30    29.85R
O`NEILL        SUNNY     60  37  43 NW21      29.83R
ORD            SUNNY     62  33  33 N22       29.83R
THEDFORD       SUNNY     61  32  32 NW16G24   29.89R
$$

NEZ041-046>049-061>064-073>077-083>087-202300-
SOUTH CENTRAL NEBRASKA

CITY           SKY/WX    TMP DP  RH WIND       PRES   REMARKS
GRAND ISLAND   SUNNY     61  41  47 NW24G31   29.83R
AURORA         MOSUNNY   64  42  44 NW15G24   29.82R
HASTINGS       SUNNY     61  40  45 NW26      29.85R
HEBRON         SUNNY     66  41  40 N14G21    29.80R
HOLDREGE       SUNNY     62  32  33 N14G23    29.87R
KEARNEY *      SUNNY     63  36  36 N22G31    29.86R
YORK           SUNNY     64  43  45 N13G18    29.80R
$$

NEZ011>018-030>034-042>045-202300-
NORTHEAST NEBRASKA

CITY           SKY/WX    TMP DP  RH WIND       PRES   REMARKS
NORFOLK        MOSUNNY   59  41  51 NW20G28   29.79R
ALBION         SUNNY     60  39  47 N22G35    29.82R
BLAIR          CLOUDY    60  56  87 W10G16    29.78R
FREMONT        CLOUDY    59  44  58 NW13      29.80R
TEKAMAH        PTSUNNY   56  45  66 NW14G24   29.77R
WAYNE          CLOUDY    60  45  58 NW18      29.76S
$$

NEZ050>053-065>068-078-088>093-202300-
SOUTHEAST NEBRASKA

CITY           SKY/WX    TMP DP  RH WIND       PRES   REMARKS
LINCOLN        CLOUDY    64  47  53 NW20      29.80R
OMAHA EPPLEY   CLOUDY    60  55  83 S7        29.77R
BEATRICE       PTSUNNY   65  51  62 SW9       29.80R
FALLS CITY     CLOUDY    62  55  77 SW8       29.81R
NEBRASKA CITY  CLOUDY    60  56  87 SW8       29.81R
PLATTSMOUTH    CLOUDY    59  55  84 S8        29.80R
$$

NEZ044-045-051>053-067-202300-
OMAHA AREA

CITY           SKY/WX    TMP DP  RH WIND       PRES   REMARKS
OMAHA EPPLEY   CLOUDY    60  55  83 S7        29.77R
BLAIR          CLOUDY    60  56  87 W10G16    29.78R
FREMONT        CLOUDY    59  44  58 NW13      29.80R
MILLARD        CLOUDY    63  58  84 CALM      29.78R
OFFUTT AFB     PTSUNNY  117 N/A N/A S7        29.79R
PLATTSMOUTH    CLOUDY    59  55  84 S8        29.80R
WAHOO          FAIR      60  45  57 NW12G22   29.79R
$$




USA.gov is the U.S. government's official web portal to all federal, state and local government web resources and services.